Theta_e
323 323 323 324 324 324 324 325 325 325 325 326 325 325 326 326 324 325 325 326 325 326 326 326 325 326 324 325 327 324 319 307 306 303 302 303 307 320 320 323 323 324 321 312 311 309 306 306 305 307 307 306 310 307 306 306 311 311 302 298 293 295 295 296 295 295 297 296 297 298 298 297 295 298 299 301 299 301 302 300 301 302 302 298 298 302 302 299
323 323 323 324 324 324 324 324 325 326 325 325 325 325 325 325 324 324 325 325 327 327 325 326 324 324 326 324 325 324 317 308 306 303 301 312 320 320 321 323 323 323 316 307 307 306 303 303 304 305 304 302 307 303 305 306 306 305 300 298 293 297 296 298 297 297 295 294 297 299 299 297 297 298 298 294 295 296 296 297 299 298 299 295 297 298 297 297
322 322 323 323 322 323 323 324 325 325 325 325 325 324 325 325 324 325 325 326 327 325 325 325 325 324 323 325 323 322 311 305 303 300 308 318 319 321 322 322 322 321 311 304 306 306 304 303 304 303 302 300 303 305 305 301 304 302 300 294 297 296 296 297 298 296 297 297 297 298 298 297 299 299 298 295 294 297 294 294 296 296 297 293 294 295 296 295
322 323 322 321 322 322 323 324 324 325 325 325 325 325 325 325 324 324 325 324 326 325 325 325 324 324 324 324 322 317 310 305 300 301 306 322 321 320 319 320 322 319 315 312 309 307 306 305 304 303 302 299 303 303 302 302 303 302 299 295 297 296 295 295 297 296 296 297 297 297 298 296 298 298 297 297 293 293 295 297 297 297 297 298 294 294 295 294
321 322 321 322 322 323 323 323 324 325 325 325 325 325 325 325 325 325 324 324 324 324 325 325 324 324 324 324 322 312 307 300 297 303 306 318 322 319 319 321 321 316 314 311 308 306 305 303 304 304 308 300 305 304 298 300 302 303 297 298 296 296 294 296 296 294 295 295 295 296 295 295 299 298 297 295 291 290 296 304 302 300 300 300 294 294 294 293
321 321 321 320 321 322 322 324 323 324 324 324 325 325 324 324 325 324 325 325 325 325 326 325 324 324 324 323 315 312 305 291 306 302 317 316 319 320 316 318 320 316 312 308 305 304 303 302 302 301 301 298 299 297 299 299 301 294 296 297 296 295 294 296 296 293 293 295 294 296 297 298 298 296 297 296 294 296 303 304 305 304 303 301 298 295 293 293
321 320 320 320 321 322 322 323 323 323 324 324 325 325 324 324 323 323 323 325 325 325 326 325 323 323 323 317 316 310 303 299 302 305 316 317 316 320 319 315 319 319 310 304 303 302 302 300 301 301 300 303 299 297 299 300 299 296 293 295 297 295 294 295 293 293 293 294 294 295 297 295 297 292 298 294 296 298 300 303 305 305 304 302 296 295 294 294
320 320 320 320 320 321 322 322 323 323 324 323 324 324 325 324 322 323 324 324 325 325 325 324 323 319 319 319 313 307 305 298 302 307 312 316 308 307 313 307 307 307 304 303 302 301 302 299 298 306 298 297 304 300 305 297 299 296 295 299 295 295 295 295 292 292 293 293 294 294 292 293 293 293 294 293 295 298 299 303 302 301 300 299 297 296 296 295
320 320 319 319 320 321 321 321 323 322 324 324 325 325 325 324 322 322 323 323 324 325 325 323 323 320 318 308 303 299 297 301 305 307 306 304 304 304 305 304 307 304 304 304 303 302 301 301 299 300 298 303 302 303 302 299 294 299 299 296 296 294 295 293 293 293 293 294 295 292 291 292 294 295 292 294 296 298 299 298 300 299 297 297 297 297 296 296
320 320 320 319 320 321 321 322 322 322 323 323 324 324 326 325 323 322 322 323 324 325 324 324 322 321 314 306 308 296 298 303 306 307 306 304 304 304 305 305 305 305 303 303 303 302 300 300 300 302 302 302 302 303 301 297 296 299 299 298 295 295 294 294 293 294 293 293 294 291 291 292 294 293 289 296 297 298 297 297 299 297 296 297 297 297 297 296
320 320 319 319 320 321 321 322 321 321 323 324 324 325 325 325 323 322 321 323 324 325 324 323 319 310 307 307 298 295 301 303 307 306 306 305 304 303 302 303 304 304 304 304 302 304 303 302 303 302 306 301 301 300 301 302 300 298 300 299 296 295 294 294 293 293 293 292 293 293 291 292 293 292 290 294 297 297 295 296 296 296 296 296 296 296 297 296
320 319 319 320 320 321 321 322 321 321 321 323 324 324 325 324 322 322 323 323 323 323 323 320 317 307 306 304 300 297 304 306 311 305 306 305 303 303 303 304 304 305 305 303 306 304 303 305 304 309 300 300 297 299 300 301 299 299 298 294 296 294 291 293 292 293 293 291 293 294 290 289 290 289 293 295 296 296 295 295 295 296 296 296 296 296 295 296
319 319 319 319 320 320 321 321 321 323 323 322 323 323 324 323 323 321 322 323 324 322 320 318 317 310 309 301 299 303 308 311 310 305 306 306 305 305 304 305 305 306 305 304 302 304 309 307 304 301 308 305 304 296 301 301 300 302 295 294 292 293 291 295 294 293 291 293 293 294 280 287 290 291 295 297 295 295 294 293 294 295 295 295 295 295 295 295
318 318 318 319 320 320 320 321 321 322 322 322 323 322 322 323 323 321 321 321 322 322 320 318 313 312 314 309 301 304 307 312 306 305 304 306 305 304 306 308 306 305 305 304 306 307 306 303 305 308 310 304 302 303 297 298 302 292 298 296 287 285 285 295 293 292 290 292 292 297 281 286 291 294 296 296 296 294 292 293 293 294 294 294 294 293 294 295
318 318 318 320 320 320 320 320 321 321 321 321 321 321 322 321 322 321 321 319 322 320 321 321 317 314 306 305 303 306 315 305 303 303 305 303 302 302 303 306 304 304 303 304 303 305 305 312 310 305 300 305 305 301 298 296 294 293 290 285 289 284 290 292 294 291 289 290 293 293 282 285 291 294 295 295 295 295 292 293 293 293 294 294 294 293 293 294
317 318 319 320 319 319 319 319 319 320 320 321 321 320 320 321 322 322 321 320 319 319 319 319 323 308 299 298 300 312 305 301 301 304 306 305 303 301 303 302 302 303 304 303 304 304 305 304 304 303 301 303 299 294 294 292 291 293 287 283 284 285 287 290 291 294 295 291 293 292 285 289 289 293 294 295 294 293 292 292 293 294 294 294 293 293 292 294
317 318 319 319 319 319 319 319 319 319 320 321 321 320 320 320 320 321 320 318 319 319 314 313 314 311 296 300 303 300 299 301 306 304 304 306 303 303 302 301 300 302 304 304 304 305 305 299 304 301 306 295 296 296 288 284 284 287 290 284 288 283 286 284 290 293 294 293 288 290 286 287 290 293 295 295 294 293 292 292 293 293 293 294 294 292 293 292
317 318 318 318 318 318 319 319 319 319 319 319 318 319 323 321 318 317 316 314 322 323 323 316 309 309 303 301 295 297 301 301 301 301 302 305 304 303 302 300 301 301 300 299 301 297 300 296 299 296 294 294 295 291 284 282 286 286 285 284 285 287 287 287 287 291 292 291 289 288 287 288 290 293 294 295 295 293 292 292 292 292 292 292 292 293 293 292
318 318 317 318 319 319 318 319 319 319 319 319 317 314 314 316 321 318 317 313 313 308 302 304 306 296 295 297 301 301 301 301 301 301 302 303 305 303 302 303 301 298 299 296 298 296 299 298 299 293 288 290 290 290 286 290 293 291 291 286 286 282 283 284 292 293 293 289 288 289 287 289 290 292 294 295 295 293 292 293 292 292 291 291 291 291 290 291
317 318 317 317 318 318 318 318 319 319 319 318 328 326 317 313 310 309 314 312 302 305 303 306 304 305 300 298 298 301 304 301 298 302 303 304 301 301 300 301 303 299 299 294 299 295 300 292 287 288 290 295 296 296 296 295 294 293 291 287 286 285 288 292 291 293 291 288 286 287 288 289 290 291 293 294 294 292 292 291 291 291 291 290 290 290 290 291
317 317 316 316 316 317 317 318 319 319 317 318 322 318 304 303 300 301 301 307 308 305 305 306 306 297 296 298 300 298 296 297 299 300 301 304 303 299 297 298 297 294 294 298 299 301 300 290 288 293 293 292 292 295 295 294 293 292 287 285 284 288 284 291 291 291 292 287 284 288 287 288 289 291 292 293 292 290 290 289 290 290 289 289 290 290 291 291
317 317 315 315 316 317 317 318 317 319 317 315 320 309 310 306 313 315 304 299 305 308 305 305 300 298 300 299 299 299 298 294 296 299 302 303 301 295 300 297 297 293 300 299 298 295 291 286 292 291 293 294 293 294 294 292 291 291 285 284 282 283 289 291 290 290 292 289 285 287 285 286 288 290 292 291 290 290 290 289 289 289 289 290 291 290 291 292
316 317 315 315 315 318 318 317 319 315 324 319 316 314 309 314 313 315 311 301 300 308 307 307 304 303 297 299 300 301 295 294 297 297 298 301 303 297 299 294 294 296 301 301 292 289 288 293 291 292 293 294 293 293 293 291 290 284 284 283 282 287 284 281 289 289 290 286 284 285 284 286 289 291 290 290 290 290 291 291 291 291 289 289 290 291 290 290
316 316 315 314 316 317 318 317 315 322 318 316 312 309 312 313 314 314 308 301 301 303 307 305 305 303 299 295 302 297 295 300 298 295 300 299 298 300 298 298 295 295 292 296 296 293 290 291 292 293 293 293 293 292 291 287 284 287 287 284 283 285 286 284 285 288 290 289 288 285 282 284 287 288 286 289 290 290 290 290 290 291 292 292 291 291 291 290
315 315 314 315 316 317 316 315 319 315 314 320 310 313 312 314 313 316 303 301 301 301 303 307 308 298 298 301 301 299 299 302 300 298 299 298 296 299 299 301 297 292 297 296 295 293 293 289 291 292 290 292 291 288 289 287 282 284 288 288 287 287 285 286 286 285 281 280 284 285 277 278 285 288 286 288 288 288 289 289 289 289 290 289 289 289 290 291
315 315 315 314 315 315 315 314 316 320 319 312 312 314 314 314 318 313 306 294 287 299 305 297 301 296 300 299 300 304 298 297 298 297 301 297 300 300 301 296 297 292 297 296 293 292 291 291 292 293 292 291 290 288 290 290 283 281 283 288 286 286 285 285 284 281 277 277 283 287 277 275 282 285 286 286 286 287 288 288 288 288 289 289 289 289 289 289
315 315 314 315 315 316 320 312 312 322 316 315 313 314 315 314 318 313 302 290 286 297 298 304 300 302 306 299 301 304 290 296 298 300 299 300 300 308 297 297 298 299 299 299 290 285 292 291 289 290 290 290 288 286 290 288 283 281 284 287 285 286 283 284 283 281 279 284 286 286 282 275 276 283 285 286 285 285 286 286 287 288 288 288 288 289 288 289
315 314 313 314 314 315 317 316 317 317 309 314 314 312 313 314 315 314 299 280 280 302 298 302 302 305 300 305 301 294 300 301 295 296 299 301 301 303 297 294 294 295 296 291 281 291 291 290 288 289 288 286 285 287 288 290 283 284 285 287 284 286 286 285 282 279 281 279 277 280 284 277 276 282 283 285 284 283 284 285 286 287 287 287 287 288 288 289
315 314 313 313 313 314 318 316 317 314 310 313 312 311 313 316 309 302 289 279 293 297 308 298 306 301 302 302 297 299 298 301 294 300 302 301 298 301 294 298 298 295 297 296 286 288 293 291 291 292 287 284 287 286 286 289 284 288 288 288 286 286 285 284 280 279 278 277 274 280 282 275 277 281 281 282 281 281 281 284 286 286 286 285 287 287 288 287
314 314 312 312 318 325 317 320 308 312 311 312 313 313 314 310 308 292 283 275 298 289 301 303 299 297 302 296 299 296 294 299 297 301 300 299 296 298 297 301 298 294 290 296 293 291 291 293 294 292 288 288 286 286 287 288 289 289 288 286 285 284 282 282 282 280 278 273 276 281 283 280 273 280 280 280 280 280 282 283 285 285 285 286 286 286 286 286
314 314 310 313 313 311 312 310 309 314 311 312 313 312 311 310 293 284 276 286 299 299 302 300 298 302 296 292 288 299 298 298 298 299 297 299 298 297 298 294 297 290 287 289 287 291 292 291 291 290 292 292 289 288 290 289 288 287 283 282 281 281 280 280 278 279 274 274 277 278 281 283 271 277 279 280 281 282 283 281 282 283 284 285 285 285 286 285
313 313 310 311 311 315 306 310 311 313 314 313 313 311 308 289 289 283 282 303 290 292 293 291 297 293 295 295 290 292 288 293 296 296 290 289 289 292 290 285 287 282 283 284 283 288 287 287 289 290 290 289 290 286 287 288 288 286 282 282 277 275 278 274 276 272 274 274 276 277 281 277 276 279 281 282 283 284 284 284 284 283 284 284 284 285 286 286
312 313 310 312 313 314 311 314 313 313 313 311 310 311 297 286 277 286 285 289 285 292 291 293 293 294 292 291 291 292 292 290 296 295 292 293 292 288 290 292 288 286 279 284 283 283 283 283 289 289 289 291 288 282 282 281 284 284 280 278 275 273 271 268 273 276 276 276 277 277 278 274 278 279 283 283 285 285 285 285 284 284 285 285 285 286 285 286
312 309 317 309 313 311 312 311 312 310 311 314 308 305 292 281 280 287 284 288 290 297 296 296 294 292 293 287 290 289 285 291 290 291 293 290 290 286 286 291 291 288 287 284 280 281 278 280 285 288 284 286 287 285 283 280 281 280 284 281 278 275 272 268 273 270 271 274 276 278 274 272 274 277 282 284 285 285 285 284 284 285 285 286 286 285 285 285
310 310 316 312 312 312 315 312 312 312 311 311 305 294 283 282 285 284 285 287 292 294 293 293 291 290 290 288 291 290 288 285 292 287 291 288 284 285 284 285 290 288 287 281 283 281 283 282 285 287 286 285 287 288 287 284 281 283 283 283 278 276 279 274 275 273 272 274 274 273 273 278 277 283 285 285 284 285 284 284 284 283 284 285 284 285 285 285
310 319 317 316 316 317 316 313 312 311 311 308 297 288 286 285 283 290 289 293 294 289 288 292 291 287 286 287 288 286 292 284 287 285 285 286 287 284 287 286 284 287 282 281 282 280 281 279 284 288 287 283 283 286 287 287 276 281 281 278 280 281 279 276 277 280 278 275 273 277 278 279 281 283 282 283 284 284 283 283 282 282 283 283 283 284 283 284
318 320 313 317 317 317 315 314 312 310 312 305 292 286 288 291 291 292 294 292 291 289 290 283 285 285 283 284 285 283 285 288 284 283 283 287 284 287 288 287 289 288 286 282 282 283 278 279 286 285 284 284 285 283 287 287 285 280 278 279 283 283 281 277 271 273 272 270 273 276 274 276 276 273 280 281 280 282 282 281 281 284 282 282 283 283 284 284
314 317 312 316 316 317 316 315 312 313 310 302 288 290 293 291 293 293 292 292 292 291 286 286 285 289 283 281 282 281 284 282 286 286 284 287 282 287 288 287 288 287 285 286 282 283 284 277 282 282 285 286 287 286 284 286 287 282 280 284 277 275 274 278 274 267 268 268 271 274 276 276 277 275 277 278 277 279 281 279 278 281 282 282 283 283 284 285
315 312 309 313 317 316 317 311 311 310 305 291 290 288 295 293 291 291 293 291 292 290 285 286 283 286 284 283 281 282 280 281 282 284 282 285 281 288 285 287 287 287 287 288 283 284 286 276 280 282 283 285 283 283 278 279 284 286 285 281 284 277 275 273 275 273 274 269 268 270 274 273 277 277 278 278 280 279 279 277 280 282 283 284 284 284 284 284
312 308 310 314 318 317 314 314 312 308 301 289 289 288 292 293 292 292 291 291 290 288 285 284 288 282 286 284 282 282 282 281 282 282 284 286 284 287 285 289 285 288 288 289 285 288 281 284 274 281 283 283 279 280 279 280 279 278 278 278 278 279 280 278 276 274 272 269 270 270 269 274 279 282 281 281 281 280 279 280 282 283 283 284 284 284 284 283
311 304 308 315 319 316 316 315 306 291 291 289 292 292 293 294 294 293 294 293 292 294 286 286 286 284 286 283 283 286 283 282 284 282 284 284 282 281 283 282 285 285 286 285 284 283 280 281 277 280 280 279 280 279 281 281 280 280 279 278 280 277 275 271 271 278 273 273 270 269 268 274 282 285 284 282 282 281 282 281 282 282 283 283 283 283 283 283
305 295 306 316 317 319 314 300 291 291 291 288 290 292 294 295 293 292 291 291 291 287 290 286 287 286 286 287 287 285 285 282 285 284 285 282 287 284 285 285 286 284 280 280 282 285 282 281 277 276 278 280 280 281 283 283 284 282 280 279 279 280 278 275 269 272 273 274 273 272 270 273 281 284 284 283 283 283 283 282 281 282 282 282 283 283 283 283
305 301 314 316 316 319 307 295 291 292 289 290 293 292 292 293 289 289 290 291 289 292 288 289 290 288 289 286 287 285 286 282 285 282 285 285 283 282 285 286 286 285 283 281 286 282 287 278 276 279 283 280 280 281 280 282 283 281 280 280 279 276 277 276 275 274 271 272 271 271 269 273 281 283 284 284 284 283 283 282 280 281 282 282 282 283 283 283
304 303 308 321 320 313 305 288 288 289 288 292 294 293 294 293 292 291 290 290 289 286 287 288 290 290 288 289 286 284 287 279 286 284 283 283 282 285 285 285 284 283 283 281 279 283 277 280 278 275 275 278 277 277 279 281 281 280 278 278 279 278 275 275 274 274 270 271 274 270 267 273 281 284 284 283 282 281 281 281 281 280 281 282 282 282 282 282
301 306 303 309 310 307 299 296 294 289 288 289 288 289 289 291 292 291 290 291 290 287 286 286 289 288 288 288 287 287 288 284 281 281 280 281 281 283 284 285 283 282 285 284 285 283 279 280 278 273 270 269 269 271 273 275 278 279 281 278 278 276 274 274 272 273 269 273 275 271 272 277 281 283 282 281 280 279 280 281 282 282 281 281 281 281 281 281
299 290 303 305 306 302 296 294 296 291 288 286 286 288 287 288 291 292 292 290 289 289 285 288 288 286 286 288 286 286 286 286 283 280 278 281 281 285 283 284 284 283 284 284 283 282 280 281 279 277 275 274 276 277 282 282 279 275 276 278 275 277 277 275 274 272 269 272 270 274 275 274 276 278 278 278 278 278 278 279 279 280 280 280 280 280 280 280
299 293 290 290 298 297 290 294 293 292 288 289 285 287 284 288 289 289 293 287 289 288 288 288 289 287 287 287 285 284 286 285 284 279 278 278 280 280 283 284 284 285 282 283 284 280 280 277 279 280 278 279 280 280 281 281 278 279 276 275 277 275 274 272 272 271 276 272 269 275 276 274 275 276 276 277 277 278 278 278 278 279 279 279 279 279 281 280
296 293 297 293 293 288 289 289 291 292 291 292 285 289 287 287 288 284 289 288 289 287 286 287 286 288 288 287 286 281 284 284 284 280 279 277 280 280 280 283 283 284 282 282 281 279 278 276 276 274 275 278 280 280 280 280 280 279 277 276 274 276 274 272 274 277 276 270 269 275 275 273 275 275 276 277 278 277 277 277 278 279 278 278 278 278 279 279
300 295 293 294 294 290 290 291 291 294 293 289 287 289 287 288 286 288 288 287 287 287 288 282 287 288 288 287 285 281 284 278 279 281 278 279 279 279 280 281 283 284 282 280 280 279 277 277 277 276 276 278 279 280 280 279 279 277 276 276 276 276 274 274 275 275 275 272 275 275 274 274 275 274 276 277 278 278 277 278 278 277 277 278 278 279 278 277
297 297 291 294 294 288 288 287 290 291 291 288 286 289 289 288 288 289 290 287 284 287 287 286 288 287 288 287 286 282 284 285 278 278 280 278 279 280 280 279 279 281 282 279 279 279 278 276 279 277 274 278 279 279 277 279 277 275 275 276 276 275 275 274 273 274 275 274 274 275 274 273 276 277 276 278 278 278 277 276 277 277 277 278 278 277 277 276
301 298 304 299 292 289 285 288 290 289 288 288 287 289 289 290 289 289 289 291 287 287 288 287 287 287 288 286 287 286 287 285 285 284 284 282 279 282 279 279 281 279 280 279 279 278 276 277 278 276 274 276 277 278 279 278 276 274 273 274 274 274 270 273 270 274 272 271 273 272 270 270 274 276 276 276 276 275 275 276 276 276 277 278 276 276 276 275
300 296 300 301 291 287 287 288 289 290 287 287 288 290 288 290 290 289 285 290 289 289 290 288 288 286 286 286 285 287 286 286 286 285 284 284 284 283 283 283 282 280 280 280 277 278 277 276 275 276 273 273 279 280 278 276 273 269 269 273 274 274 274 274 275 276 276 275 271 268 269 273 274 275 274 274 275 275 275 276 276 276 276 277 275 274 274 274
Wind_Speed
7 7 7 7 6 6 7 7 7 6 6 6 6 7 7 7 7 6 6 6 5 4 4 5 6 7 8 8 8 8 9 7 8 1 4 2 1 5 8 8 8 8 8 7 9 9 9 6 5 3 4 3 2 2 3 4 0 0 2 3 4 6 3 7 5 4 1 1 5 4 4 3 3 3 3 2 2 2 2 5 3 2 1 8 6 7 12 13
7 7 6 6 6 5 6 6 6 6 6 7 6 7 7 7 7 5 5 5 4 4 3 5 5 6 7 7 8 8 6 7 8 5 4 1 5 6 7 6 6 5 6 6 7 8 7 4 2 1 4 3 4 1 2 1 1 2 2 3 5 3 2 3 4 6 4 4 6 2 2 3 1 9 4 2 4 5 4 6 4 5 5 9 7 9 11 12
8 8 7 6 6 5 5 5 6 6 6 6 6 6 6 7 6 5 3 4 3 2 3 4 5 6 7 7 8 8 4 6 7 1 2 1 5 6 6 7 6 3 2 5 7 9 8 8 6 4 4 4 4 1 2 1 0 3 2 3 1 3 2 7 5 4 5 2 0 2 3 2 0 1 5 3 4 4 9 6 5 8 9 10 9 9 10 11
8 7 7 7 6 5 4 5 5 5 5 5 5 6 6 6 6 6 4 3 4 4 4 4 5 6 7 7 6 6 5 6 5 4 3 3 6 5 7 7 7 5 5 6 8 9 8 7 6 4 4 4 2 1 2 1 1 2 2 3 2 3 4 5 4 5 3 3 2 1 3 1 2 3 4 2 3 7 7 8 8 9 11 10 13 12 10 10
7 7 7 7 6 5 5 5 5 5 5 5 5 5 5 5 6 6 6 4 4 5 5 5 6 6 6 6 7 3 5 6 3 2 5 7 5 5 6 6 7 4 4 6 9 8 8 8 6 3 2 2 2 1 4 3 0 1 3 5 3 3 3 4 5 4 2 2 3 1 2 2 0 2 4 4 6 7 3 1 2 9 7 10 16 14 13 13
9 9 9 8 8 8 7 6 6 6 5 5 4 4 4 4 5 6 7 6 5 5 6 5 6 6 6 4 3 4 3 1 0 3 4 9 7 5 5 5 7 4 5 5 5 6 6 6 5 3 2 3 2 3 2 1 2 2 4 5 3 2 3 2 3 3 3 1 2 1 2 2 1 3 3 6 11 9 1 2 4 5 3 4 13 13 13 13
10 10 9 9 9 8 7 6 6 6 5 5 4 4 3 3 4 5 6 6 6 5 5 6 5 5 3 3 3 5 7 2 3 5 8 7 9 6 4 5 6 4 4 5 6 5 5 7 5 3 4 2 3 3 3 1 2 3 3 1 1 2 2 4 4 0 0 3 1 3 3 2 1 5 3 9 10 9 6 3 4 3 2 4 12 12 15 15
9 9 9 8 8 8 7 6 5 5 6 6 5 5 4 3 4 5 5 6 5 5 5 5 5 4 4 2 3 4 7 2 6 6 7 8 8 8 2 5 4 3 5 6 6 7 4 7 7 1 4 3 1 2 1 4 3 3 3 3 2 1 3 2 3 1 0 2 2 2 3 5 4 6 5 13 9 7 7 4 4 4 4 4 9 11 11 12
9 9 9 9 8 8 8 7 7 6 6 6 6 5 4 3 4 5 5 5 5 5 5 5 5 3 1 1 5 7 0 3 5 6 9 7 8 7 5 6 3 5 6 5 4 7 5 3 7 2 1 1 1 2 0 0 2 0 2 3 0 1 1 3 2 2 2 1 0 3 6 4 7 6 11 17 12 11 7 5 5 5 6 7 8 9 11 11
9 8 9 8 8 9 8 7 7 7 5 6 6 6 5 4 5 6 6 6 5 5 4 5 4 2 2 4 3 6 2 6 4 5 6 6 6 8 4 6 7 6 5 4 3 6 7 4 6 5 5 1 2 0 1 2 1 1 2 3 4 2 2 3 5 5 3 2 1 4 6 5 1 5 9 5 9 9 10 10 7 7 7 8 7 8 9 10
9 8 8 8 8 8 8 7 7 6 5 6 7 6 6 5 6 6 6 5 5 3 5 5 1 1 4 7 6 4 2 2 3 3 5 5 5 6 6 6 5 6 7 3 4 3 5 6 4 2 1 1 2 1 1 0 1 3 1 1 4 3 3 3 6 4 3 3 5 3 8 5 3 2 13 13 3 3 4 8 9 8 6 7 8 8 7 8
9 8 8 8 8 8 8 8 7 7 6 6 7 7 6 6 6 5 5 3 4 4 5 6 2 2 6 8 5 2 2 3 2 3 4 3 4 3 4 4 5 5 6 7 1 1 2 5 4 2 2 4 2 2 2 2 2 0 2 2 4 6 6 7 8 6 5 1 2 1 7 9 8 8 19 15 5 3 4 5 6 8 7 7 7 8 6 7
9 9 8 8 8 8 8 8 8 7 8 8 8 8 7 7 6 5 4 5 6 6 5 5 5 4 3 5 2 2 1 1 2 3 4 4 5 4 3 2 4 3 5 6 2 2 2 3 4 3 1 2 2 1 0 2 1 1 2 2 4 4 7 11 7 5 5 1 4 2 3 6 4 19 15 7 5 4 4 5 6 6 7 7 6 5 5 5
9 9 8 8 8 8 8 7 8 9 9 9 9 8 8 8 7 5 3 4 5 6 5 5 3 3 1 1 3 2 1 1 4 2 6 6 6 3 1 1 1 2 3 3 2 2 3 2 2 2 2 2 1 0 2 1 1 2 2 2 2 2 3 4 7 7 4 2 2 1 3 6 10 6 10 3 8 7 6 7 7 7 6 5 5 5 5 5
9 9 8 8 8 8 8 8 8 8 9 9 10 10 9 9 7 5 4 3 7 6 6 3 3 3 3 1 3 2 3 2 2 5 4 6 6 6 1 3 2 2 2 2 2 2 3 2 0 1 0 0 2 1 1 2 3 3 0 3 2 3 1 3 5 7 4 2 3 2 3 9 8 5 6 5 5 7 6 6 6 6 6 7 6 5 4 4
10 9 9 9 8 8 7 8 8 8 9 9 10 10 11 8 7 6 6 5 4 2 3 2 2 3 5 3 2 4 1 2 4 2 1 2 5 5 8 7 3 3 2 2 1 1 2 3 1 2 1 1 3 3 3 2 3 3 6 3 3 4 3 2 3 3 1 4 3 6 5 6 8 1 4 4 4 7 7 7 6 5 5 4 2 6 3 3
9 10 10 9 9 8 9 9 9 9 10 9 9 11 9 7 5 6 7 5 4 4 3 2 1 1 3 1 1 2 2 3 1 2 4 1 2 5 7 6 4 2 0 1 1 2 1 4 0 2 2 3 3 4 2 4 4 3 2 3 4 4 2 3 2 3 1 3 3 5 4 8 11 14 12 6 7 7 8 6 5 4 2 1 1 4 7 4
10 10 10 9 9 8 9 9 9 10 10 11 7 7 5 2 3 2 4 2 2 2 2 2 1 1 2 1 2 4 3 3 4 4 5 0 1 3 4 4 3 3 3 4 4 4 3 3 2 3 2 3 3 2 2 2 1 1 2 3 4 5 5 6 4 3 3 1 3 4 8 12 13 15 14 10 6 10 8 6 4 3 1 3 2 1 1 5
11 11 10 9 9 9 9 10 10 10 11 13 7 3 6 6 4 5 3 2 1 1 1 1 1 2 1 3 1 4 4 1 4 4 2 4 2 3 4 4 6 5 3 2 2 6 3 2 2 2 4 5 6 7 7 2 1 1 1 2 3 5 4 5 1 1 2 3 4 6 7 8 10 11 12 10 6 5 7 7 2 2 5 4 3 4 4 4
12 10 10 10 9 9 10 9 10 9 8 8 1 1 1 1 2 1 2 2 2 1 1 1 2 4 5 1 5 7 2 1 2 3 1 2 4 4 5 4 3 4 3 2 2 4 2 2 3 5 3 1 1 0 2 3 2 2 2 2 5 5 6 5 6 0 0 1 6 8 7 9 11 13 14 9 7 4 2 5 6 6 5 4 4 4 5 4
12 11 11 11 11 10 10 10 9 9 6 4 5 3 2 3 3 1 4 1 1 1 1 1 1 2 2 3 4 8 4 2 2 2 5 1 3 3 2 3 3 3 6 6 2 1 0 3 6 1 2 4 3 3 3 3 0 1 3 4 6 5 6 2 3 3 2 0 2 3 7 10 12 15 12 10 6 3 6 5 7 5 4 4 5 5 3 3
13 12 12 13 11 11 12 11 10 10 7 3 3 3 2 2 1 1 1 2 1 1 3 0 1 3 3 2 2 2 2 3 5 3 4 7 1 2 2 3 2 5 1 1 1 1 2 7 0 3 2 0 2 2 1 0 2 2 3 5 4 5 5 5 3 3 2 0 6 4 7 10 15 15 11 2 6 6 7 5 4 4 4 5 5 4 3 2
13 11 13 12 12 10 11 11 9 8 4 2 2 3 2 2 2 1 2 3 3 0 1 0 1 1 2 3 1 2 4 2 1 4 6 7 1 2 3 3 4 5 2 2 3 3 5 2 2 2 3 1 0 1 0 1 2 3 4 3 5 1 3 3 1 2 4 2 5 4 6 10 16 10 2 6 5 5 5 7 7 5 7 6 6 6 8 8
13 13 14 15 12 10 10 9 9 3 3 3 5 3 2 2 3 2 2 3 1 1 1 1 1 1 2 2 1 2 2 1 1 2 5 4 3 0 0 1 4 3 5 3 4 3 5 2 3 2 1 2 2 1 1 2 3 4 6 5 4 2 1 2 2 3 4 5 3 4 5 6 11 2 3 4 5 7 5 6 6 4 4 5 8 9 8 8
14 14 15 15 13 9 10 7 1 2 1 2 4 2 2 2 3 3 1 2 1 1 1 1 2 1 2 1 1 2 2 1 0 2 3 3 4 2 0 1 0 2 1 2 3 4 4 1 2 3 1 0 1 3 3 2 3 3 3 3 2 2 1 4 5 6 4 3 1 2 4 2 1 3 8 4 3 6 5 8 8 9 9 7 8 7 6 7
14 14 14 15 16 14 6 1 2 1 1 2 2 2 2 2 1 3 1 2 2 1 1 2 0 1 1 1 1 1 2 1 2 2 2 2 1 0 2 2 1 2 3 3 3 2 1 0 1 1 1 1 1 2 3 2 3 2 1 3 3 2 1 1 4 3 3 1 1 1 1 6 2 7 6 6 6 8 6 9 8 7 7 6 6 6 6 6
15 15 14 14 14 16 1 2 0 1 2 2 2 3 2 2 1 2 1 1 1 0 1 0 1 0 1 1 1 0 2 1 1 0 1 1 0 2 1 1 1 1 1 1 1 3 2 0 1 1 2 1 2 2 1 1 1 2 1 2 2 2 2 3 1 3 6 3 5 5 5 3 5 7 7 8 9 7 8 7 7 6 7 6 6 6 6 7
15 16 16 14 13 8 1 4 3 1 2 2 3 3 4 1 1 1 0 1 0 1 1 0 1 1 2 0 1 2 2 2 2 2 1 1 1 1 2 3 2 2 1 1 4 0 1 0 0 0 0 2 2 1 2 2 1 1 2 1 3 3 4 3 1 3 4 4 5 6 5 1 4 2 5 9 10 7 6 6 6 6 6 6 6 6 6 6
15 16 16 15 12 9 4 2 2 2 2 3 3 3 1 2 2 1 0 2 0 0 1 2 1 1 1 2 2 1 0 1 1 1 1 0 2 1 2 3 2 3 2 3 5 0 1 1 1 1 1 2 2 1 1 0 2 1 2 2 5 4 3 2 2 2 3 1 5 1 5 3 5 4 4 3 6 6 5 6 6 5 6 5 5 5 5 5
15 14 17 18 8 1 2 2 4 1 2 3 3 3 2 2 1 0 0 3 1 0 2 1 0 2 2 4 0 1 3 1 2 1 2 1 4 1 1 0 2 2 3 2 4 2 1 2 2 1 1 2 2 1 1 1 1 2 3 4 5 4 3 1 2 2 1 3 4 1 7 1 2 1 1 4 1 4 7 5 5 5 5 5 4 5 5 4
14 13 14 15 3 2 2 1 2 1 2 1 3 2 1 1 0 1 1 0 0 1 1 1 1 1 3 3 3 0 1 0 1 2 1 1 1 1 2 1 2 2 1 0 3 3 1 0 0 0 1 3 0 3 1 1 2 1 1 2 4 1 3 1 1 3 0 2 0 3 1 2 2 1 2 2 3 6 8 6 5 4 4 4 4 4 4 4
12 10 10 7 2 3 3 2 2 1 1 2 3 1 1 1 1 1 1 1 1 3 1 2 1 0 2 1 4 2 2 4 0 1 1 2 2 0 3 1 3 3 0 2 2 2 1 1 1 2 2 1 0 2 1 1 1 1 3 3 2 3 1 1 2 1 4 3 1 2 2 4 6 5 6 4 5 7 7 6 6 4 3 3 4 5 4 4
12 10 10 4 3 1 3 1 1 1 2 3 1 2 2 0 1 1 1 2 1 1 2 3 3 3 3 3 0 2 2 0 0 1 1 1 1 2 1 2 0 1 2 4 5 3 0 3 1 1 1 1 2 2 1 1 0 2 2 2 3 2 1 3 3 3 1 0 2 3 3 3 5 2 4 8 6 7 7 6 4 3 2 3 4 3 4 4
11 9 3 1 1 1 1 0 0 1 2 2 2 1 0 1 1 3 0 2 1 2 4 1 3 4 1 2 0 3 2 2 1 1 0 0 2 2 0 2 5 2 0 3 3 3 3 2 0 0 1 2 1 1 1 2 2 3 3 1 0 1 0 4 1 2 2 2 1 2 2 3 1 1 3 8 7 5 5 4 4 1 2 1 2 4 3 3
12 7 3 1 2 2 1 2 2 2 2 1 2 1 0 1 2 2 1 3 2 3 2 2 3 2 0 1 1 0 1 1 1 4 1 0 2 2 2 2 3 3 2 1 0 1 4 3 1 2 0 1 0 1 1 2 3 1 1 1 1 2 2 3 2 4 4 5 3 0 3 1 3 3 6 5 6 6 4 4 2 2 3 1 3 3 4 3
6 2 2 1 1 2 2 2 1 1 1 2 1 1 1 0 1 1 0 2 2 3 7 7 2 2 1 2 1 0 2 0 3 3 1 1 1 2 1 2 2 4 2 1 2 2 5 2 0 3 3 1 1 2 0 1 0 1 2 0 0 1 1 2 3 8 5 2 6 3 3 1 3 3 2 5 6 5 5 4 3 4 3 3 3 3 5 4
3 1 1 1 1 1 0 2 1 1 2 2 1 1 0 1 0 1 2 2 1 1 3 3 1 2 2 2 2 1 1 0 2 1 1 2 2 3 1 0 1 2 3 1 2 1 0 7 1 1 1 0 0 1 1 2 0 2 1 1 5 2 1 0 2 3 1 4 3 3 1 1 2 2 3 5 4 5 5 4 2 5 5 5 5 5 5 4
3 1 1 1 1 1 1 1 1 2 2 1 1 2 1 0 0 1 1 2 0 1 1 1 0 3 2 2 2 4 3 2 4 1 3 1 1 2 1 1 2 3 0 1 1 1 3 5 0 2 1 2 1 1 1 0 1 0 1 2 2 1 2 1 1 3 3 4 3 3 6 4 2 0 0 2 4 4 4 3 4 6 6 5 5 4 4 7
2 1 1 0 1 0 0 1 1 2 2 1 1 1 2 2 1 1 2 2 2 1 1 1 0 1 1 3 2 0 3 3 4 2 2 1 1 4 1 2 0 1 1 2 0 3 2 2 2 1 0 2 1 1 2 0 1 1 2 2 0 2 3 1 1 1 0 6 3 1 5 3 4 1 5 4 4 3 4 4 4 6 7 7 7 9 11 13
2 2 1 0 0 1 1 1 1 2 2 1 2 1 1 1 1 1 1 2 1 1 1 1 2 2 1 0 1 2 0 0 1 2 1 1 1 4 3 6 2 2 3 0 1 1 3 1 3 0 2 1 1 3 1 2 1 0 0 1 1 1 1 0 2 1 2 2 2 5 4 1 3 4 5 5 4 4 4 6 6 9 11 12 13 14 14 13
1 1 0 1 1 0 1 1 1 2 1 1 2 1 0 1 0 1 1 2 1 1 0 1 2 1 2 2 1 1 1 2 2 1 1 2 3 1 3 3 4 3 4 1 0 3 1 2 4 5 6 1 3 1 1 1 2 1 1 1 1 1 2 3 5 2 3 1 3 3 6 2 3 7 7 5 4 4 6 8 10 12 12 13 13 13 13 12
2 1 1 0 1 1 1 0 1 0 1 1 0 1 0 1 1 1 0 0 1 0 1 0 1 1 2 1 1 2 2 3 1 0 1 1 2 2 0 2 3 2 2 2 1 0 0 2 1 5 4 6 2 0 1 2 1 1 1 1 3 1 1 1 3 1 3 1 1 1 5 2 2 6 7 9 7 8 9 10 10 11 12 12 12 12 12 11
1 2 1 2 2 1 1 0 0 0 2 1 2 1 1 0 1 0 0 1 0 1 0 1 1 1 3 1 2 2 3 2 1 1 2 2 2 1 3 4 4 4 2 2 1 2 3 1 2 5 5 3 1 2 1 2 1 1 1 1 3 1 1 0 2 1 2 2 3 3 3 2 1 4 11 12 12 10 10 10 11 11 12 13 14 14 13 13
1 2 1 1 1 1 1 1 2 1 1 1 1 1 1 1 1 0 0 1 1 0 1 1 2 2 1 2 1 1 3 2 2 2 1 1 1 1 2 3 5 2 2 1 1 3 2 1 2 4 4 1 1 1 0 0 1 3 2 3 3 2 4 0 1 1 1 3 7 2 6 1 0 6 11 11 9 11 11 13 14 15 14 13 13 11 12 15
2 1 1 1 3 3 2 0 1 1 1 0 0 0 0 1 3 1 1 1 0 0 1 1 1 1 1 1 1 2 1 2 2 1 0 1 0 1 1 2 3 0 2 2 2 3 1 3 1 2 3 5 4 3 4 4 4 2 2 3 4 6 5 3 2 3 2 2 8 3 6 3 13 16 16 15 16 17 15 15 15 14 13 15 14 14 15 15
1 1 0 1 2 3 3 1 1 0 0 0 0 0 1 0 0 1 2 1 2 1 0 1 2 1 1 1 1 1 3 2 2 1 3 2 1 1 1 1 2 1 1 4 3 1 1 2 1 2 2 4 4 4 2 5 5 4 4 4 1 2 1 1 1 1 2 4 5 6 5 13 12 14 12 14 15 15 16 17 17 16 16 16 13 14 14 14
1 0 2 3 2 4 4 3 2 2 1 0 0 1 2 1 2 1 2 0 0 1 0 1 0 1 0 1 2 3 1 1 1 2 0 2 0 1 1 1 1 1 2 2 2 0 1 2 1 2 4 4 5 7 8 5 5 4 5 4 2 3 4 1 0 3 6 6 5 3 16 13 13 9 11 13 15 13 15 14 17 16 17 16 16 15 17 14
1 1 0 1 1 2 2 1 4 1 1 1 1 0 1 2 1 2 0 1 0 1 0 1 1 2 2 2 2 2 3 4 2 1 0 1 2 1 0 0 1 2 1 0 1 1 1 1 1 2 5 5 9 10 8 5 2 3 4 4 5 3 2 4 2 3 3 1 7 10 11 11 11 10 11 13 15 15 15 18 16 16 15 17 18 18 16 14
1 1 1 1 1 1 0 1 1 2 1 1 1 1 1 2 2 0 1 0 1 0 0 1 1 3 3 2 1 1 3 3 2 1 2 1 2 2 1 0 0 1 1 0 1 0 0 2 0 3 5 7 11 9 5 2 2 5 6 6 6 6 5 3 3 4 6 6 9 11 11 13 5 12 12 15 13 15 16 14 14 16 20 21 21 18 15 18
1 1 1 1 0 1 0 1 1 1 1 0 1 1 1 2 3 2 0 2 1 1 1 0 3 3 1 2 1 1 0 0 1 3 1 3 4 1 1 1 1 1 1 1 1 0 1 2 2 2 2 4 1 3 1 2 2 7 7 7 6 5 5 6 5 7 9 5 6 11 13 8 8 15 16 16 16 14 14 16 18 19 20 21 16 16 18 18
0 0 1 1 1 1 0 0 1 1 1 1 2 1 1 3 2 1 0 3 1 1 1 2 3 5 1 2 3 1 3 2 2 1 2 1 1 1 1 1 4 2 1 0 0 1 1 2 2 2 2 4 1 1 1 6 9 8 8 8 7 6 5 8 4 6 5 9 11 8 5 6 12 15 14 12 14 16 16 18 17 20 23 18 16 18 19 19
0 0 0 1 1 0 0 0 1 1 1 0 1 2 1 2 0 2 0 1 3 2 1 1 3 1 3 3 1 2 2 2 2 2 2 3 2 3 2 2 2 0 2 0 0 0 1 1 3 2 3 3 3 5 6 7 4 3 5 6 5 4 5 5 5 7 6 8 5 6 4 8 11 12 19 20 19 17 15 14 18 22 22 15 16 18 18 21
Wind_Direction
10 7 5 1 356 350 346 343 343 340 335 335 331 328 326 327 326 336 331 332 327 333 330 322 324 321 319 318 314 314 333 293 284 127 60 75 3 300 294 294 294 309 319 306 295 271 279 256 254 145 252 229 156 259 100 220 32 180 229 236 266 252 262 354 23 29 79 118 134 169 176 212 172 171 163 159 235 238 229 183 236 204 157 107 119 118 123 130
8 7 3 356 350 347 343 340 336 336 335 330 330 323 322 319 320 324 329 314 317 327 331 317 309 311 314 309 309 318 325 291 280 107 71 51 296 304 304 293 306 324 314 297 301 302 299 298 228 186 269 247 87 198 167 110 205 237 265 253 257 355 10 346 4 43 25 44 113 129 200 206 254 160 145 191 209 194 236 234 191 229 157 107 134 127 136 141
4 1 355 349 345 347 342 338 336 333 329 322 318 323 321 319 312 309 303 309 309 319 306 294 298 296 299 304 304 312 304 269 261 68 68 307 309 339 322 311 313 320 300 304 303 310 311 321 337 300 248 271 148 140 240 123 228 220 244 265 270 13 39 43 40 62 42 337 39 123 191 201 61 74 113 219 265 203 212 227 199 216 210 157 160 150 156 158
356 354 349 346 342 343 347 342 340 334 326 321 324 328 332 327 318 306 294 299 308 304 284 291 287 283 286 295 316 313 268 284 254 73 45 348 360 339 329 319 313 297 271 252 268 287 292 291 283 279 299 277 98 266 252 138 197 28 267 250 318 18 335 54 48 52 39 5 316 245 78 209 245 161 153 199 229 246 249 225 209 214 215 187 168 161 164 173
350 350 346 341 343 347 351 354 346 342 336 334 332 323 318 317 315 308 303 304 302 299 290 294 293 292 284 300 313 285 292 272 74 23 28 2 354 340 322 317 306 307 292 290 305 276 263 285 282 273 297 268 240 62 235 129 21 36 261 278 346 -0 327 72 65 20 42 9 302 271 146 246 354 166 212 221 228 242 210 305 249 214 210 202 162 172 169 178
353 354 347 348 348 348 352 354 350 348 344 336 328 315 309 319 318 314 305 299 299 295 287 302 306 299 309 323 306 261 266 322 30 13 341 351 344 326 308 302 297 295 296 283 269 281 271 254 252 231 229 240 176 206 55 36 93 266 244 259 39 35 305 72 71 40 325 273 246 233 283 328 186 253 208 229 233 241 144 165 78 52 42 20 150 164 176 180
352 350 346 345 344 342 340 346 346 343 336 327 321 325 329 332 331 312 300 297 295 292 301 309 310 318 322 353 233 257 264 94 8 24 25 338 328 308 282 272 263 270 281 286 253 266 246 264 249 258 266 282 286 273 112 255 150 233 278 93 223 70 333 55 72 96 312 315 284 14 13 287 229 253 241 246 241 243 252 126 116 116 50 95 134 173 180 186
350 346 342 342 335 333 330 331 333 333 326 330 336 335 320 319 309 296 292 288 292 296 302 308 314 330 350 277 278 246 245 76 3 356 8 358 326 338 266 256 238 276 280 255 271 249 265 265 255 263 241 247 56 303 36 283 202 228 255 280 81 297 102 107 124 170 168 265 322 316 287 246 244 264 294 261 253 251 238 167 159 144 144 149 156 180 186 192
348 345 338 335 330 325 327 329 329 333 328 330 330 325 318 314 300 296 295 295 287 292 298 303 295 331 255 324 270 288 83 28 0 350 3 354 334 310 303 331 348 303 284 275 261 276 298 242 248 237 301 309 114 238 166 0 253 27 313 352 2 260 138 137 181 195 211 266 161 290 256 257 256 283 265 259 258 251 238 228 171 166 177 185 190 187 189 195
342 340 333 329 324 318 318 322 320 314 323 325 321 320 318 310 296 297 302 298 283 270 280 286 295 256 275 254 266 271 86 281 341 10 1 347 330 327 317 354 335 315 285 253 260 250 243 329 328 9 349 264 198 166 56 152 226 228 305 317 297 305 178 164 230 205 192 256 180 241 271 271 61 117 279 236 249 223 225 225 184 183 198 202 206 202 197 199
341 333 329 322 316 312 313 313 310 309 319 319 316 314 310 302 296 296 300 302 286 269 266 273 55 240 286 262 277 297 213 259 354 340 10 342 345 1 345 331 332 308 300 284 251 326 327 306 321 308 80 296 169 152 226 72 15 275 322 273 265 248 216 209 212 234 136 235 207 247 277 272 221 134 240 253 114 157 201 211 198 190 210 217 213 211 207 207
337 331 325 319 316 312 315 315 309 311 320 321 313 308 299 293 293 289 296 302 270 265 272 274 222 268 283 289 272 23 291 51 325 350 329 8 339 312 312 297 307 313 313 304 291 9 336 327 318 267 273 356 221 80 194 183 252 171 229 282 248 208 233 206 210 202 159 239 114 264 286 266 201 228 238 244 219 181 203 220 209 201 214 219 218 210 208 208
333 328 322 320 318 317 311 313 317 316 317 313 307 300 293 290 287 294 309 288 233 261 265 287 288 245 289 283 79 117 285 35 12 296 352 332 309 261 257 297 311 326 342 325 21 35 358 327 314 257 20 293 66 190 123 238 180 321 233 227 305 274 249 217 184 182 165 116 159 134 323 284 208 218 245 218 178 168 201 224 219 218 220 217 218 215 207 194
331 324 319 319 318 319 318 315 314 311 306 303 298 295 287 287 284 284 277 279 309 269 278 301 310 290 344 305 127 94 324 337 274 333 10 324 313 303 236 326 350 349 348 29 34 339 309 248 285 81 44 16 200 31 165 180 156 230 145 172 233 352 298 106 155 133 171 112 167 66 198 280 289 290 226 163 152 175 203 220 221 226 221 212 218 213 203 199
328 321 321 328 328 325 321 318 308 304 298 293 292 294 291 283 277 278 279 286 258 271 296 312 247 273 246 104 125 117 64 326 346 39 23 354 352 314 294 339 352 359 1 18 6 339 303 302 211 183 75 297 96 130 219 205 186 236 46 278 191 182 178 130 124 146 202 173 206 147 261 245 278 325 115 136 172 182 218 225 228 219 217 203 192 202 199 190
334 329 328 328 323 320 320 316 313 296 292 283 286 288 285 275 266 255 254 246 324 327 243 267 196 289 297 254 101 122 200 285 30 24 86 352 352 321 328 299 309 277 282 85 309 345 284 295 330 359 112 353 238 236 248 218 215 199 164 294 296 190 204 127 194 189 30 118 195 180 240 323 294 124 149 174 195 201 223 239 248 257 274 293 186 175 175 177
333 336 332 329 325 323 320 312 304 295 286 282 288 281 262 265 269 255 241 273 257 205 253 309 326 74 290 44 257 238 49 48 236 352 352 72 332 318 319 304 262 270 175 227 270 295 292 257 81 306 249 226 206 221 282 263 256 177 190 231 250 238 295 285 46 313 141 217 195 227 259 243 265 279 273 245 202 218 227 248 258 261 267 247 241 165 163 168
343 336 335 329 321 318 315 309 300 297 297 298 289 292 295 273 293 303 257 250 249 274 306 295 280 324 217 204 339 15 334 335 7 317 283 218 162 313 311 297 312 299 286 279 211 248 205 221 147 249 173 230 232 220 162 254 162 137 206 263 294 338 309 281 269 167 196 173 275 249 236 257 262 271 273 265 235 205 238 231 237 258 35 9 10 2 159 148
343 337 333 327 318 318 320 310 306 305 301 293 292 312 262 273 241 249 289 196 230 186 220 137 267 230 354 23 89 339 343 332 292 289 45 20 313 285 280 266 273 285 278 241 184 201 187 236 151 296 255 206 210 202 200 248 97 290 352 242 283 289 281 279 109 197 224 190 223 230 254 275 279 280 281 286 292 284 207 234 286 47 63 51 39 21 35 62
342 331 333 328 323 320 320 308 299 292 312 317 190 254 197 212 196 166 211 49 46 40 100 297 236 284 235 53 359 326 224 67 277 175 99 64 319 308 264 246 255 252 257 242 214 175 47 249 217 232 263 300 113 5 349 14 54 354 311 284 252 252 270 260 106 180 206 301 243 240 252 269 278 279 279 288 292 275 4 46 47 51 38 48 45 49 32 25
340 334 337 336 332 325 322 317 303 298 304 272 282 286 5 13 313 339 340 71 4 123 263 98 334 321 356 338 2 6 359 237 211 62 36 307 258 304 229 159 240 260 220 227 269 98 321 291 258 328 13 12 32 10 28 333 35 256 257 258 268 241 264 302 136 169 235 304 282 310 288 277 280 279 285 293 271 50 56 44 53 43 61 58 61 50 49 46
338 334 338 340 332 327 322 321 315 314 295 227 314 22 73 41 37 355 296 268 161 227 212 163 346 258 135 47 98 324 235 281 202 128 73 345 153 225 72 260 262 262 86 97 201 227 188 232 111 18 358 320 43 55 33 19 288 236 222 253 280 266 238 95 87 182 149 148 264 281 293 288 281 277 291 319 66 61 57 65 59 58 56 61 58 56 64 55
336 329 338 335 334 317 320 315 319 324 330 3 9 47 62 17 344 8 276 262 266 126 222 208 247 311 129 116 81 256 293 294 15 57 350 342 254 244 2 320 288 288 237 187 228 277 272 174 37 332 321 353 118 86 0 255 205 247 242 231 229 256 49 289 133 265 187 151 280 296 300 285 278 288 42 51 58 70 81 69 71 46 58 65 68 51 55 54
338 337 337 337 329 331 316 319 297 300 43 60 58 51 39 342 325 295 262 272 331 149 325 64 4 287 2 330 66 305 294 38 258 26 15 350 350 96 308 280 292 300 271 267 238 249 260 87 6 303 299 315 299 140 267 233 270 220 206 229 270 5 352 149 308 314 293 247 231 314 288 273 262 213 109 102 110 100 93 102 90 85 82 88 70 68 61 58
339 337 339 334 326 325 326 313 337 49 268 110 81 87 26 354 308 333 310 260 189 156 232 252 233 40 46 190 220 289 38 279 10 50 -0 16 338 298 119 316 230 257 48 50 321 280 257 47 327 265 247 298 308 297 214 217 295 294 58 17 40 43 358 349 338 344 339 298 134 161 334 267 354 147 139 143 110 95 113 98 82 70 65 58 67 67 60 64
340 338 337 336 328 327 313 2 80 310 299 44 36 33 15 350 315 314 299 283 293 92 256 89 145 163 309 129 277 34 83 264 45 15 9 52 285 319 330 216 165 290 21 324 279 245 345 236 285 298 323 29 277 256 304 81 289 332 274 359 41 22 47 327 307 30 298 316 277 187 120 274 23 298 141 153 116 108 82 74 75 77 70 66 63 59 59 54
339 338 339 336 328 330 319 13 320 281 248 91 31 348 350 318 39 289 275 193 256 75 351 77 246 216 333 91 290 328 296 52 120 107 206 89 180 203 333 238 159 183 52 268 355 256 175 91 194 287 271 241 263 274 34 9 0 259 203 286 341 282 277 266 284 175 242 307 280 239 199 249 317 276 138 124 111 99 87 79 82 78 71 64 64 58 56 47
339 336 336 336 328 346 7 295 298 356 46 0 342 328 331 312 321 262 267 316 224 245 56 154 12 355 297 180 227 263 290 292 260 158 299 134 237 174 160 295 309 290 206 150 264 22 264 143 199 189 229 257 253 72 291 346 171 257 223 355 279 279 258 270 243 256 258 311 292 235 169 217 242 264 107 123 123 111 96 94 82 72 63 65 57 56 59 59
339 335 330 325 319 297 290 354 2 57 2 17 326 313 320 316 273 327 335 267 118 333 204 122 310 193 247 170 253 213 281 33 289 81 167 141 242 326 222 244 316 301 206 211 235 265 316 35 61 334 99 267 90 239 20 260 265 93 312 232 240 244 236 204 242 274 292 225 264 222 163 189 287 160 158 71 96 114 117 99 87 76 82 65 64 58 65 61
337 334 329 326 314 229 344 78 55 47 341 347 328 302 306 281 242 238 247 263 39 55 304 217 216 313 313 315 206 111 249 179 173 298 187 296 118 45 248 87 273 238 264 222 255 37 151 17 230 303 295 46 311 145 193 331 308 326 268 286 284 235 177 148 261 254 254 269 256 222 162 235 303 2 191 128 176 145 120 107 88 81 70 72 71 80 66 72
335 330 333 327 28 337 284 154 57 57 333 296 295 285 268 234 242 303 247 223 323 68 225 67 353 226 359 30 334 317 293 62 308 319 265 70 202 243 254 329 129 298 271 300 252 165 125 93 261 22 64 289 297 296 103 0 343 351 308 304 326 317 66 132 254 176 46 282 0 328 105 15 162 247 32 58 37 77 106 99 87 76 76 81 72 67 74 60
333 324 329 351 294 280 350 8 9 355 281 312 282 272 258 307 152 255 317 226 64 337 0 331 180 51 323 69 203 321 306 312 325 355 3 8 335 2 15 37 359 339 273 134 312 85 219 142 32 127 305 36 261 288 97 323 227 236 281 287 4 292 255 226 127 264 186 222 174 359 348 306 220 242 156 97 85 78 79 85 80 69 60 66 62 70 57 65
329 323 309 306 284 58 66 24 323 311 307 260 270 245 286 333 284 3 350 347 294 31 331 148 278 320 323 288 139 334 122 321 185 204 197 240 205 55 292 32 250 173 238 349 322 301 282 306 253 114 97 44 307 5 330 33 213 281 310 26 19 338 340 272 274 277 310 107 284 70 73 219 260 20 119 113 98 93 83 87 90 81 53 51 74 64 65 42
326 323 293 61 21 93 111 236 163 278 262 219 282 262 294 17 271 162 241 24 331 195 235 263 311 283 187 329 30 332 328 201 5 321 250 250 167 145 50 31 17 342 269 297 295 11 331 337 57 289 274 317 325 46 159 209 348 288 139 187 288 168 284 298 12 316 289 296 204 304 24 239 253 189 80 95 92 88 106 108 97 87 67 57 65 71 59 33
320 297 273 143 200 187 159 146 187 236 274 262 265 269 286 260 61 1 31 351 1 334 326 123 314 324 197 39 130 33 99 324 210 320 174 283 349 29 31 2 31 13 255 354 16 334 192 213 279 353 233 301 144 143 179 345 300 245 6 24 43 233 328 234 332 332 301 311 319 133 198 286 70 105 91 102 109 101 84 53 89 38 67 30 73 62 36 19
304 206 200 245 31 113 167 135 248 224 282 274 297 244 269 38 323 14 7 226 303 342 311 303 149 294 266 139 342 286 263 156 312 21 275 79 13 67 342 47 2 10 25 44 345 315 353 265 227 105 296 59 63 320 19 53 100 331 4 13 219 221 146 285 311 249 254 263 245 160 282 27 69 78 135 128 121 102 69 60 39 57 34 38 75 35 30 18
257 148 226 142 141 89 130 148 221 253 257 288 310 317 84 60 144 303 21 358 28 316 290 344 346 23 357 313 78 0 326 329 266 38 334 118 66 15 70 80 277 358 42 105 331 110 187 289 173 157 249 246 338 30 313 4 75 350 318 280 275 123 143 99 283 337 249 241 267 124 252 276 343 271 213 155 91 48 57 55 24 52 36 20 29 28 10 3
310 257 309 338 14 335 82 151 249 237 259 299 262 98 312 49 340 29 342 293 268 199 302 284 287 107 21 1 329 9 322 34 342 11 303 46 346 255 294 67 5 24 31 35 105 323 42 315 292 308 70 173 345 14 312 17 269 261 218 265 37 324 343 276 98 317 347 283 287 291 287 273 259 250 108 88 58 33 35 23 27 30 21 15 27 20 352 348
260 297 250 114 317 310 130 142 220 278 272 245 289 120 35 98 357 51 357 302 226 333 283 65 268 9 131 330 319 136 22 11 333 342 357 8 42 348 63 251 61 128 306 5 281 330 317 206 298 266 0 122 188 112 313 12 327 304 344 329 57 112 183 10 224 234 130 274 322 272 53 301 50 147 119 83 61 52 38 20 22 30 11 14 11 358 356 355
286 258 106 238 154 288 166 229 293 241 252 17 4 62 247 77 87 54 55 353 56 326 10 342 46 308 330 333 106 336 51 185 302 290 218 343 113 3 41 358 11 349 2 302 302 334 303 178 281 108 320 30 308 162 267 69 141 52 65 174 25 201 233 114 314 191 221 270 263 292 307 112 45 84 80 66 80 77 55 29 18 13 9 5 1 357 353 352
108 224 101 251 314 147 199 229 354 20 19 124 84 76 46 46 127 119 19 11 301 140 30 17 324 319 18 327 24 119 299 307 282 284 311 15 47 311 46 29 340 326 331 338 246 325 270 293 262 321 304 250 268 344 351 15 46 38 29 303 94 21 355 343 292 57 15 355 307 355 275 321 4 71 67 70 66 64 42 43 16 5 2 358 355 355 353 348
283 324 354 234 322 278 324 0 44 159 330 37 7 348 59 235 255 96 324 96 329 10 120 24 231 200 308 288 34 323 345 286 297 331 40 45 26 52 16 341 330 303 353 346 73 65 142 292 320 282 252 280 85 37 5 319 341 62 36 0 61 320 103 285 274 309 9 273 37 234 283 322 52 93 71 34 29 54 39 30 11 359 358 355 355 354 350 352
334 311 161 297 323 348 333 111 39 0 56 129 157 131 84 191 4 205 273 178 229 311 224 234 27 321 67 33 356 324 39 272 343 290 42 13 97 350 330 324 332 273 185 325 101 23 11 250 277 252 256 74 56 201 191 344 329 75 70 44 4 46 92 148 270 253 264 273 291 260 238 229 306 64 33 28 41 25 23 15 5 357 358 356 354 350 349 349
295 309 328 227 177 29 4 68 357 44 115 170 237 86 323 26 295 191 185 108 345 95 340 349 123 38 296 33 305 282 15 348 62 37 17 326 27 272 320 316 -0 17 5 94 104 337 23 251 66 305 312 281 81 352 19 331 44 24 37 36 66 86 61 180 223 228 308 219 222 247 262 263 184 2 13 43 31 22 8 7 5 357 352 352 349 348 349 345
287 199 265 336 24 9 94 275 344 305 89 27 122 266 139 170 19 36 351 53 350 19 324 67 47 341 303 74 283 281 268 199 304 98 189 325 46 202 178 348 307 349 61 337 288 316 182 277 356 313 331 334 340 354 340 341 354 303 89 65 32 65 6 18 334 14 281 356 14 292 281 331 345 350 4 14 11 4 6 360 359 355 350 349 345 346 345 336
23 338 257 170 31 58 97 217 23 19 287 80 180 215 229 216 136 76 301 61 27 305 187 316 207 133 276 274 275 236 223 126 171 321 17 338 91 200 66 329 4 29 333 307 305 287 279 329 284 259 250 261 288 297 319 10 339 330 340 82 244 56 46 96 252 210 232 318 317 266 303 327 336 350 13 1 11 354 357 353 351 347 347 344 341 340 336 329
273 38 353 323 337 71 90 19 9 359 28 165 5 41 6 340 130 138 302 220 50 332 314 224 280 294 50 250 333 314 98 178 162 40 264 290 335 131 180 333 108 198 327 325 216 289 275 291 310 345 264 274 309 300 302 340 307 321 30 358 60 118 119 101 82 300 336 331 285 41 353 328 319 353 8 2 356 355 352 349 343 346 345 340 337 331 332 334
356 252 257 147 136 336 340 31 10 355 140 305 91 81 356 345 19 9 145 44 189 174 354 105 0 237 281 332 322 305 352 313 161 236 30 187 306 170 132 227 272 149 173 331 0 37 11 292 336 72 303 301 280 276 290 295 299 37 38 38 21 114 109 107 271 278 316 240 275 317 328 326 326 19 353 4 351 351 344 345 349 341 334 333 333 334 336 355
85 66 83 285 48 29 92 308 306 334 324 16 94 66 0 3 39 103 311 222 180 149 211 20 69 45 10 32 357 298 335 350 349 193 98 347 303 318 321 164 348 185 232 172 66 69 55 245 12 216 275 275 270 265 249 248 78 55 57 22 25 17 21 42 7 344 351 324 315 316 315 309 28 359 2 346 350 347 346 344 340 342 343 336 329 332 352 349
33 297 23 295 347 141 152 250 288 288 276 104 93 4 356 6 25 18 104 3 354 65 346 268 9 349 350 309 300 272 356 122 193 279 211 71 319 118 312 57 0 198 252 50 357 341 92 268 75 294 285 303 52 78 26 130 97 92 41 34 21 25 27 17 5 349 339 308 312 314 306 304 25 358 349 345 347 344 338 347 349 343 336 327 336 349 344 341
61 120 307 303 265 153 195 204 267 316 304 357 11 355 322 40 48 341 29 14 62 0 19 355 342 321 252 222 243 241 64 357 0 330 355 12 277 35 336 346 20 334 65 13 106 316 96 295 337 281 330 310 186 233 206 98 78 76 53 28 19 18 32 3 356 330 321 311 319 325 338 353 340 349 332 335 341 346 349 345 346 335 328 333 354 345 344 346
224 95 230 310 288 167 311 85 266 308 56 356 5 15 20 41 0 344 94 57 52 66 32 325 321 297 279 191 41 57 356 355 6 352 320 322 326 318 20 23 6 72 315 78 233 16 17 335 319 338 346 262 324 345 348 107 93 63 36 18 4 22 30 352 326 323 321 343 353 11 336 345 335 338 345 343 343 337 339 344 333 326 318 344 346 352 349 345